ICT,Max TemperatureF,Mean TemperatureF,Min TemperatureF,Max Dew PointF,MeanDew PointF,Min DewpointF,Max Humidity, Mean Humidity, Min Humidity, Max Sea Level PressureIn, Mean Sea Level PressureIn, Min Sea Level PressureIn, Max VisibilityMiles, Mean VisibilityMiles, Min VisibilityMiles, Max Wind SpeedMPH, Mean Wind SpeedMPH, Max Gust SpeedMPH,PrecipitationIn, CloudCover, Events, WindDirDegrees
2013-10-1,91,82,74,81,77,75,100,88,70,29.83,29.77,29.71,6,5,4,9,2,,0.00,4,Rain,208
2013-10-2,95,83,71,79,76,72,100,84,54,29.92,29.84,29.77,6,4,0,15,2,,0.00,6,Fog,251
2013-10-3,95,84,74,79,76,73,100,94,65,29.92,29.87,29.80,6,5,3,9,2,,0.43,6,Rain-Thunderstorm,207
2013-10-4,87,80,74,79,76,73,100,92,70,29.92,29.85,29.77,6,5,4,8,2,,0.28,7,Rain,249
2013-10-5,83,78,73,79,76,73,100,97,89,29.86,29.83,29.77,6,5,3,10,4,,T,8,Rain,206
2013-10-6,84,78,73,79,76,73,100,98,79,29.83,29.78,29.74,6,5,3,12,3,,0.00,8,Rain,210
2013-10-7,85,79,73,77,75,73,100,92,72,29.83,29.78,29.74,5,4,3,16,6,,0.04,8,Rain,208
2013-10-8,86,80,73,79,76,73,100,97,83,29.89,29.83,29.80,6,5,4,14,5,,0.00,8,Rain,196
2013-10-9,89,81,73,79,76,73,100,88,55,29.89,29.85,29.80,6,5,4,12,3,,0.02,5,,204
2013-10-10,92,83,74,79,76,73,100,83,62,29.92,29.86,29.80,6,6,3,9,3,,0.00,5,,275
2013-10-11,93,83,73,81,77,72,100,83,51,29.92,29.83,29.74,6,5,2,15,3,,0.39,2,Rain,247
2013-10-12,93,84,75,79,76,75,100,89,51,29.87,29.82,29.74,6,5,4,10,2,,0.00,4,Rain,225
2013-10-13,93,83,73,81,77,73,100,93,66,29.89,29.82,29.74,6,5,0,7,1,,0.00,6,Fog-Rain-Thunderstorm,218
2013-10-14,92,83,74,81,77,73,100,90,60,29.86,29.79,29.71,6,5,2,14,2,,0.16,5,Fog-Rain,265
2013-10-15,95,84,73,79,76,73,100,87,49,29.86,29.78,29.71,6,5,3,13,3,,0.00,5,Rain,229
2013-10-16,92,82,73,81,77,73,100,87,60,29.83,29.78,29.71,6,5,3,9,3,,0.00,7,,228
2013-10-17,95,85,75,79,77,73,100,86,55,29.86,29.80,29.71,6,4,2,10,4,,0.00,6,,219
2013-10-18,95,85,75,81,78,75,100,89,61,29.92,29.84,29.74,6,5,3,13,2,,0.12,6,Rain-Thunderstorm,288
2013-10-19,87,80,73,81,77,73,100,96,74,29.95,29.87,29.80,6,4,0,9,2,,0.00,6,Fog-Rain,151
2013-10-20,86,80,73,81,76,73,100,95,79,29.92,29.86,29.77,5,3,0,5,1,,0.00,7,Fog,133
2013-10-21,90,82,73,79,77,73,100,87,67,29.86,29.82,29.74,6,5,0,13,3,,0.00,5,Fog-Thunderstorm,163
2013-10-22,89,81,73,79,76,73,100,86,63,29.92,29.85,29.77,6,4,0,14,3,,0.00,4,Fog,42
2013-10-23,89,81,73,79,77,73,100,84,61,29.92,29.85,29.80,6,5,0,13,4,,0.00,5,Fog,18
2013-10-24,88,82,75,79,77,75,100,89,68,29.95,29.86,29.77,6,5,2,13,3,,0.00,5,Rain-Thunderstorm,15
2013-10-25,89,81,73,81,78,73,100,91,66,29.92,29.85,29.80,6,5,3,9,3,,0.47,4,Rain-Thunderstorm,103
2013-10-26,86,80,73,81,77,73,100,92,68,29.95,29.88,29.83,6,4,0,12,3,,0.00,6,Fog,42
2013-10-27,88,80,73,77,76,73,100,92,66,29.92,29.88,29.83,5,4,1,10,2,,0.31,7,Rain-Thunderstorm,46
2013-10-28,88,81,74,79,77,75,100,94,79,29.95,29.90,29.83,6,5,1,13,2,,0.08,5,Fog,130
2013-10-29,93,82,72,79,76,72,100,90,57,29.98,29.90,29.83,6,4,0,5,2,,0.00,4,Fog-Rain,175
2013-10-30,91,82,73,81,78,73,100,89,54,29.98,29.89,29.80,6,4,0,15,3,,0.00,4,Fog,39
2013-10-31,90,82,73,81,77,73,100,88,48,29.92,29.87,29.80,5,3,0,12,3,,0.00,3,Fog-Rain-Thunderstorm,29